Voltar ao catálogo

STARLINK-34241

AtivoComunicaçõesVLEO
NORAD 64229·PAYLOAD·🇺🇸 United States

Lançado May 31, 2025 de Vandenberg Space Force Base

Loading…

Próximas Passagens (próximas 24 horas)

TLE

AtualizadoSource: CelesTrak SupGP

Época: Sep 15, 2026, 04:03 UTC

1 64229C 25117AC  26258.16923611 -.00047510  00000+0 -14038-2 0  2585
2 64229  53.1571 236.3137 0001405  92.6278 192.5675 15.34412919    11

Acompanhe STARLINK-34241 em tempo real com AllMySat

Download on the App Store